Regional Weather Roundup
Issued by NWS

Home | Current Version | Previous Version | Text Only | Print | Product List | Glossary On
Versions: 1 2 3 4 5 6 7 8 9 10 11 12 13 14 15 16 17 18 19 20 21 22 23 24 25 26 27 28 29 30 31 32 33 34 35 36 37 38 39 40 41 42 43 44 45 46 47 48 49 50
000
ASUS43 KBIS 272220
RWRND

NORTH DAKOTA REGIONAL WEATHER ROUNDUP
NATIONAL WEATHER SERVICE BISMARCK ND
400 PM CST THU NOV 27 2014

NOTE: "FAIR" INDICATES FEW OR NO CLOUDS BELOW 12,000 FEET WITH NO
SIGNIFICANT WEATHER AND/OR OBSTRUCTIONS TO VISIBILITY.


NDZ001>003-009>011-017-272300-
NORTHWEST NORTH DAKOTA

CITY           SKY/WX    TMP DP  RH WIND       PRES   REMARKS
WILLISTON      MIX PCPN  20  15  81 SE8       29.85F WCI  10
MINOT          LGT SNOW  13   8  81 E15       30.00F VSB 3/4 WCI  -3
MINOT AFB      LGT SNOW  14  10  85 SE17      30.00F FOG     WCI  -3
$$

NDZ018>021-031>035-040>046-272300-
SOUTHWEST NORTH DAKOTA

CITY           SKY/WX    TMP DP  RH WIND       PRES   REMARKS
BISMARCK       SNOW      12   9  87 SE21      30.05F VSB 1/2 WCI  -7
DICKINSON      CLOUDY    24  20  84 S16       29.83F WCI  11
GARRISON         N/A     13  11  92 SE18      29.97F WCI  -4
HETTINGER ARPT CLOUDY    23  18  81 S13       29.88F WCI  11
$$

NDZ004>008-012>016-024-026-027-054-272300-
NORTHEAST NORTH DAKOTA

CITY           SKY/WX    TMP DP  RH WIND       PRES   REMARKS
GRAND FORKS    CLOUDY     4  -5  66 S13       30.31F WCI -13
GRND FRKS AFB  MOCLDY     5  -3  69 S13       30.29F WCI -12
DEVILS LAKE    CLOUDY     7  -8  51 S16       30.14F WCI -11
$$

NDZ022-023-025-028>030-036>039-047>053-272300-
SOUTHEAST NORTH DAKOTA

CITY           SKY/WX    TMP DP  RH WIND       PRES   REMARKS
FARGO          CLOUDY     8  -2  63 S13       30.32F WCI  -8
JAMESTOWN      CLOUDY     5  -3  69 S13       30.17F WCI -12
$$



USA.gov is the U.S. government's official web portal to all federal, state and local government web resources and services.